Flag for Germany Weather past 2 weeks in Berlin, Berlin, Germany

Now
53 °F

Cool.


Feels Like: 51 °F
Forecast: 47 / 56 °F
Wind: 7 mph from Northwest

Location: Berlin-Tempelhof

Current Time: May 26, 2015 at 4:41:00 AM

Latest Report: May 26, 2015 at 4:00 AM


Visibility: N/A

Pressure: 29.91 "Hg

Humidity: 74%

Dew point: 45 °F

Location of BerlinLocation

Historic Weather in Berlin — Graph

°F

Berlin temperature yesterday

Maximum temperature yesterday: 71 °F (at 1:00 PM)
Minimum temperature yesterday: 52 °F (at 2:00 AM)
Average temperature yesterday: 61 °F

Past Weeks' High & Low Weather Summary

 TemperatureHumidityPressure
High81 °F (May 12, 4:00 PM)96% (May 15, 6:00 AM)30.40 "Hg (May 15, 6:00 AM)
Low40 °F (May 11, 4:00 AM)24% (May 24, 7:00 PM)29.59 "Hg (May 19, 4:00 AM)
Average57 °F60%30.03 "Hg
* Reported May 11 3:00 AM — May 26 3:00 AM, Berlin, Weather by CustomWeather, © 2015

Note: Actual official high and low records may vary slightly from our data, if they occured in-between our weather recording intervals... More about our weather records

Advertising

Berlin weather history for previous 24 hours

 ConditionsComfort  
Time TempWeatherWind HumidityBarometerVisibility
3:00 AM
Tue, May 26
54 °FCool.6 mph69%29.91 "HgN/A
2:00 AM55 °FCool.6 mph67%29.91 "HgN/A
1:00 AM56 °FCool.5 mph64%29.90 "HgN/A
12:00 AM57 °FCool.5 mph72%29.91 "HgN/A
11:00 PM
Mon, May 25
59 °FCool.5 mph68%29.89 "HgN/A
10:00 PM59 °FCool.6 mph68%29.89 "HgN/A
9:00 PM62 °FCool.7 mph61%29.87 "HgN/A
8:00 PM63 °FMild.7 mph61%29.85 "HgN/A
7:00 PM66 °FMild.9 mph53%29.85 "HgN/A
6:00 PM68 °FMild.7 mph46%29.84 "HgN/A
5:00 PM69 °FMild.9 mph40%29.84 "HgN/A
4:00 PM71 °FMild.6 mph29%29.84 "HgN/A
3:00 PM71 °FMild.5 mph36%29.84 "HgN/A
2:00 PM70 °FMild.6 mph42%29.86 "HgN/A
1:00 PM71 °FMild.3 mph41%29.86 "HgN/A
12:00 PM68 °FMild.2 mph47%29.88 "HgN/A
11:00 AM68 °FMild.3 mph52%29.90 "HgN/A
10:00 AM67 °FMild.2 mph56%29.92 "HgN/A
9:00 AM62 °FCool.1 mph65%29.93 "HgN/A
8:00 AM57 °FCool.2 mph68%29.94 "HgN/A
7:00 AM55 °FCool.1 mph71%29.95 "HgN/A
6:00 AM54 °FCool.1 mph66%29.96 "HgN/A
5:00 AM53 °FCool.1 mph66%29.96 "HgN/A
4:00 AM52 °FCool.1 mph70%29.96 "HgN/A
Weather by CustomWeather, © 2015

See weather overviewHow to use our weather pages